loading
|

SCOUT A DEB, 2386

Orbit data source: Space-Track

SCOUT A DEB, 2386 is space debris in LEO originally from a launch on Sat, 26 Mar 1966 UTC launched from the Air Force Western Test Range (AFWTR). Debris objects in space refer to the collection of defunct objects orbiting the Earth. Examples of debris include non-operational satellites, rocket bodies, and fragments generated from explosions, collisions, or faulty payload assembly.

Loading next visibility...
Loading greatness...
SCOUT A DEB details
Identifier
2386, 1966-024D
Orbit
LEO
Last TLE update20 hours ago
Origin
Flag of USUSN BuWeps (US)
ManufacturerUnknown
MissionSpacecraft
Bus & MotorUnknown bus, Unknown motor
MassUnknown
Launch date (UTC)
1966-03-26 (59 years ago)
Launch vehicleUnknown
Launch site
Air Force Western Test Range (AFWTR)
Object type
Payload
Rocket body
Debris
Shape & HBRUnknown
Radar Cross SectionSmall (<0.1 m²)

Expand to show TLE details & history

TLE from 20 hours ago
0 SCOUT A DEB
1 02386U 66024D   24280.85513994  .00001040  00000-0  91328-3 0  9998
2 02386  90.0628 328.0228 0130630  63.0830 298.3616 13.81057663236583
Epoch: 2024-10-06T20:31Z
Definitive object data (Epoch: 2024-10-06T20:31:24.09Z)
Latitude-0.00007°
Longitude4.18131°
Altitude918.57 km
Speed7.415 km/s
True Right ascension21h 52m 05s
True Declination0° 00' 00"
Sunlit
Object was in full shadow at TLE epoch
Predictive object data (real-time)
Latitude-26.64821°
Longitude-175.84444°
Altitude1,049.126 km
Speed7.287 km/s
Apparent Right ascension07h 48m 14s
Apparent Declination-73° 31' 11"
Sunlit
Object is in daylight
Predictive observer data (real-time)
Local Sidereal Time10:45:00
Azimuth192.862° SSW
Elevation-27.341°
Doppler factor1
Orbital elements
Apogee1,052.962 km
Perigee861.321 km
Semi-major axis7,335.279 km
Eccentricity0.013063
Inclination90.0628°
RAAN328.0228°
Arg. of periapsis63.083°
True anomaly297.03419°
Mean anomaly298.3616°
Eccentric anomaly297.69892°
Mean motion3.45476 °/min
BSTAR0.00091328
Period104.2 mins
No data available

SCOUT A DEB Visibility forecast

Observer location: 39.9160978°, -105.1181434

SCOUT A DEB is not visible in the next 10 days
Span
Click to sort rows by Start time (UTC) header in descending order
Start Az.
Max El. time (UTC)
Max El. Az.
Max El.
End time (UTC)
End Az.